This demonstration page uses our WeatherBlox Daily Observations layout. Learn more.

38.88101, -77.10428

Hourly Observations for February 13, 2018

Temp ( °F °C ) Dew Point ( °F °C ) Humidity (%) Winds ( mph kmh ) Pressure ( in mb ) Visibility ( mi km ) Precip ( " mm )
12:52 am 00:52 Mostly Cloudy 36 2.2 21 -6.1 55 55 NNW 6 9 30.71 1040 10 16.0934 0 0
1:52 am 01:52 Mostly Cloudy 36 2.2 21 -6.1 55 55 N 10 17 30.71 1040 10 16.0934 0 0
2:52 am 02:52 Partly Cloudy 35 1.7 20 -6.7 54 54 N 10 17 30.73 1041 10 16.0934 0 0
3:52 am 03:52 Mostly Clear 35 1.7 19 -7.2 52 52 N 12 19 30.74 1041 10 16.0934 0 0
4:52 am 04:52 Mostly Cloudy 34 1.1 18 -7.8 52 52 N 9 15 30.75 1041 10 16.0934 0 0
5:52 am 05:52 Mostly Cloudy 34 1.1 18 -7.8 52 52 NNE 12 19 30.77 1042 10 16.0934 0 0
6:52 am 06:52 Mostly Clear 33 0.6 18 -7.8 54 54 NE 12 19 30.79 1043 10 16.0934 0 0
7:52 am 07:52 Mostly Sunny 33 0.6 18 -7.8 54 54 NE 13 20 30.8 1043 10 16.0934 0 0
8:52 am 08:52 Mostly Sunny 35 1.7 20 -6.7 54 54 ENE 12 19 30.81 1044 10 16.0934 0 0
9:52 am 09:52 Mostly Sunny 36 2.2 17 -8.3 46 46 ENE 9 15 30.82 1044 10 16.0934 0 0
10:52 am 10:52 Partly Cloudy 38 3.3 18 -7.8 44 44 NE 6 9 30.81 1043 10 16.0934 0 0
11:52 am 11:52 Partly Cloudy 40 4.4 18 -7.8 41 41 NNE 6 9 30.78 1042 10 16.0934 0 0
12:52 pm 12:52 Mostly Cloudy 41 5 16 -8.9 36 36 Calm 30.75 1041 10 16.0934 0 0
1:52 pm 13:52 Mostly Cloudy 42 5.6 20 -6.7 41 41 E 5 7 30.72 1040 10 16.0934 0 0
2:52 pm 14:52 Mostly Cloudy 41 5 20 -6.7 43 43 SE 10 17 30.71 1040 10 16.0934 0 0
3:52 pm 15:52 Cloudy 40 4.4 22 -5.6 49 49 SSE 8 13 30.72 1040 10 16.0934 0 0
4:52 pm 16:52 Cloudy with Light Rain 38 3.3 25 -3.9 60 60 SSE 10 17 30.7 1040 10 16.0934 0 0.0254
5:13 pm 17:13 Cloudy 38 3.3 24 -4.4 57 57 SSE 10 17 30.71 1040 10 16.0934 0 0.0254
5:52 pm 17:52 Cloudy 38 3.3 25 -3.9 60 60 SSE 7 11 30.69 1039 10 16.0934 0 0.0254
6:52 pm 18:52 Cloudy 38 3.3 26 -3.3 62 62 S 7 11 30.68 1039 10 16.0934 0 0
7:52 pm 19:52 Cloudy 38 3.3 27 -2.8 65 65 S 7 11 30.66 1038 10 16.0934 0 0
8:52 pm 20:52 Cloudy 38 3.3 28 -2.2 68 68 S 6 9 30.65 1038 10 16.0934 0 0
9:52 pm 21:52 Cloudy 38 3.3 28 -2.2 68 68 S 9 15 30.63 1037 10 16.0934 0 0
10:52 pm 22:52 Mostly Cloudy 37 2.8 28 -2.2 70 70 S 9 15 30.6 1036 10 16.0934 0 0
11:52 pm 23:52 Cloudy 37 2.8 30 -1.1 76 76 S 8 13 30.58 1036 10 16.0934 0 0

Powered by AerisWeather